TITAN 3C TRANSTAGE DEB, 43454

Orbit data source: Space-Track

TITAN 3C TRANSTAGE DEB, 43454 is space debris in GEO originally from a launch on Sun, 09 Feb 1969 UTC launched from the Air Force Eastern Test Range (AFETR). Debris objects in space refer to the collection of defunct objects orbiting the Earth. Examples of debris include non-operational satellites, rocket bodies, and fragments generated from explosions, collisions, or faulty payload assembly.

Not visible in the next 10 days
Identifier
43454, 1969-013M
Orbit
GEO
Last TLE update
2 days ago
Origin
Manufacturer
Martin Marietta
Mission
Spacecraft
Bus & Motor
Unknown
Mass
Unknown
Launch date (UTC)
1969-02-09 (56 years ago)
Launch vehicle
Unknown
Launch site
Air Force Eastern Test Range (AFETR)
Object type
Payload
Rocket body
Debris
Shape & HBR
Unknown
Radar Cross Section
RCS unknown

Expand to show TLE details & history

TLE from 2 days ago
0 TITAN 3C TRANSTAGE DEB
1 43454U 69013M   25127.49839952 -.00000096  00000-0  00000-0 0  9991
2 43454   0.7241 192.8279 0555779 273.0087 260.3436  1.02844474 26465
Epoch: 2025-05-07T11:57Z
Definitive object data (Epoch: 2025-05-07T11:57:41.718Z)
Latitude
0.18096°
Longitude
-45.00512°
Altitude
35,579.651 km
Speed
3.064 km/s
True Right ascension
00h 00m 00s
True Declination
0° 10' 51"
Sunlit
Object was in daylight at TLE epoch
Visualization TLE readout
Latitude
0.72314°
Longitude
-111.75426°
Altitude
37,354.86 km
Speed
2.935 km/s
Apparent Right ascension
19h 58m 43s
Apparent Declination
-4° 38' 53"
Sunlit
Object is in daylight
Visualization observer readout
Local Sidereal Time
14:06:31
Azimuth
94.816° ESE
Elevation
-1.489°
Doppler factor
1
Orbital elements
Apogee altitude
37,385.788 km
Perigee altitude
32,777.304 km
Semi-major axis
41,459.683 km
Eccentricity
0.0555779
Inclination
0.7241°
RAAN
192.8279°
Arg. of periapsis
273.0087°
True anomaly
254.1495°
Mean anomaly
260.3436°
Eccentric anomaly
257.23789°
Mean motion
0.2571 °/min
BSTAR
Unknown
Orbital period
1400.23 mins
Loading historical data...
43454 neighbors
Loading maneuver chart data...
Loading SW <> Apogee altitude chart data...

TITAN 3C TRANSTAGE DEB Visibility forecast

Observer location: undefined°, undefined°

TITAN 3C TRANSTAGE DEB is not visible in the next 10 days
Span
Click to sort rows by Start time (UTC) header in descending order
Start Az.
Max El. time (UTC)
Max El. Az.
Max El.
End time (UTC)
End Az.
|